Temperature
11 11 11 11 11 11 11 11 11 11 11 11 11 11 11 11 11 11 11 11 11 11 11 11 11 11 11 11 11 11 11 11 11 11 11 10 10 10 10 10 10 10 10
11 11 11 11 11 11 11 11 11 11 11 11 11 11 11 11 11 11 11 11 11 11 11 11 11 11 11 11 11 11 11 10 10 10 10 10 10 10 10 10 10 10 10
10 10 10 10 10 10 10 10 10 10 10 10 10 10 10 10 10 10 10 10 10 10 10 10 10 10 10 10 10 10 10 10 10 10 10 10 10 10 10 10 10 10 10
10 10 10 10 10 10 10 10 10 10 10 10 10 10 10 10 10 10 10 10 10 10 10 10 10 10 10 10 10 10 10 10 10 10 10 9 9 9 9 9 9 9 9
9 9 9 9 9 9 9 9 9 10 10 10 10 10 10 10 10 9 9 9 9 9 9 9 9 9 10 10 10 10 9 9 9 9 9 9 9 9 9 9 9 9 9
9 9 9 9 9 9 9 9 9 9 9 9 9 9 9 9 9 9 9 9 9 9 9 9 9 9 9 9 9 9 9 9 9 9 9 9 9 9 8 8 8 8 8
8 9 8 9 9 9 9 9 9 9 9 9 9 8 8 8 8 8 8 8 8 8 8 8 8 9 9 9 9 9 9 8 8 8 8 8 8 8 8 8 8 8 8
8 8 8 8 8 8 8 8 8 8 8 8 8 8 8 7 8 8 8 8 8 8 8 8 8 8 8 8 8 8 8 8 8 8 8 8 8 8 8 7 7 7 7
7 7 8 8 8 8 8 8 8 8 8 8 8 8 8 7 7 7 7 8 8 7 7 7 8 8 8 8 8 8 8 8 8 8 7 7 7 7 7 7 7 7 7
7 7 7 7 7 7 7 7 7 7 7 7 7 7 7 7 7 7 7 7 7 7 7 7 7 7 7 7 7 7 7 7 7 7 7 7 7 7 6 6 6 7 7
6 6 6 6 7 7 7 7 7 7 7 7 7 7 7 7 7 7 7 7 7 7 7 7 7 7 7 7 7 7 7 7 7 7 6 6 6 6 6 6 6 6 6
6 6 6 6 6 6 6 6 6 6 6 7 7 7 7 7 7 7 6 6 6 6 6 6 6 6 6 6 6 6 6 6 6 6 6 6 6 6 6 6 6 5 6
5 5 5 5 5 6 6 6 6 6 6 6 6 6 6 6 6 6 6 6 6 6 6 6 6 6 6 6 6 6 6 6 6 6 6 6 6 5 5 5 5 5 5
4 5 5 5 5 5 5 5 6 6 6 6 6 6 6 6 6 6 6 6 5 5 5 6 6 6 6 5 5 5 5 5 5 5 5 5 5 5 5 5 5 5 5
4 4 4 4 4 5 5 5 5 5 5 5 5 5 5 5 5 5 5 5 5 4 4 5 5 5 5 5 5 5 5 5 5 5 5 5 5 5 4 4 4 4 4
3 4 4 4 4 4 4 4 5 5 5 5 5 5 5 5 5 5 5 5 5 5 4 5 5 5 4 4 4 4 4 4 4 4 4 4 4 4 4 4 4 4 4
3 3 3 3 4 4 4 4 4 4 4 4 4 4 5 5 5 5 4 4 4 4 4 4 4 4 4 4 4 4 4 4 4 4 4 4 4 4 4 3 3 3 3
2 2 3 3 3 3 4 4 4 4 4 4 4 4 4 4 4 4 4 4 4 4 4 4 4 4 4 3 3 3 3 3 3 3 3 3 3 3 3 3 3 3 3
2 2 2 2 3 3 3 3 3 3 3 3 3 3 4 4 4 4 4 4 4 3 3 3 3 3 3 3 3 3 3 3 3 3 3 3 3 3 3 3 3 2 2
1 2 2 2 2 2 2 2 3 3 3 3 3 3 3 3 3 3 3 3 3 3 3 3 3 3 3 2 2 2 2 2 2 2 2 2 2 2 2 2 2 2 2
1 1 1 1 2 2 2 2 2 2 2 2 2 2 3 3 3 3 3 3 3 2 2 2 2 2 2 2 2 2 2 2 2 2 2 2 2 1 2 1 1 1 1
0 0 1 1 1 1 1 1 1 1 2 2 2 2 2 2 2 2 2 2 2 2 2 2 2 2 2 2 2 2 1 1 1 1 1 1 1 1 1 1 1 1 1
-1 -0 -0 -0 0 0 1 1 1 1 1 1 1 2 2 2 2 2 2 2 2 2 1 2 2 2 2 2 1 1 1 1 1 1 0 0 1 1 1 1 1 0 0
-1 -1 -1 -1 -1 -0 -0 0 0 0 1 1 1 1 1 1 1 1 1 1 1 1 1 1 1 2 1 1 1 1 1 0 0 0 -0 -0 0 0 0 0 0 -0 -0
-2 -2 -2 -1 -1 -1 -1 -1 -1 -0 -0 0 0 0 0 1 1 1 0 0 1 1 1 1 1 1 1 1 0 0 0 -0 -0 -0 -0 -1 -0 -0 -0 -0 -0 -1 -1
-3 -3 -2 -2 -2 -1 -1 -1 -1 -1 -1 -1 -0 -0 -0 -0 -0 -0 -0 -0 -0 0 0 -0 0 0 -0 -0 -0 -0 -0 -0 -1 -1 -1 -1 -1 -1 -1 -1 -1 -1 -1
Wind_Speed
2 2 2 3 3 3 4 4 4 4 4 5 5 5 4 4 4 4 4 4 4 4 4 5 5 4 4 4 6 7 7 7 7 8 7 8 8 8 7 7 6 6 7
3 2 2 2 2 3 3 4 4 3 3 3 3 4 4 4 4 4 4 4 4 4 3 3 3 3 3 4 5 6 6 6 7 7 7 7 7 7 6 6 6 6 7
3 3 2 1 1 2 3 3 4 4 3 3 3 3 3 4 4 4 4 4 4 4 4 3 3 3 3 4 5 6 6 6 6 6 6 7 6 5 5 6 6 5 5
3 3 2 2 2 2 2 2 2 3 2 2 2 2 3 4 4 5 5 6 5 5 5 5 4 2 2 2 4 5 6 6 5 5 5 5 5 4 4 4 4 4 5
3 3 2 2 3 3 2 2 2 2 2 2 2 2 3 3 3 4 6 6 6 6 5 5 5 4 2 2 3 5 6 5 5 4 4 4 4 4 4 3 3 3 4
3 3 2 2 3 2 1 2 2 2 2 3 3 3 3 3 3 4 4 5 5 5 5 5 5 4 3 2 2 4 5 5 4 4 4 3 3 3 3 3 2 2 3
2 3 2 2 2 2 2 3 3 3 2 2 3 3 3 3 3 3 4 3 4 4 5 5 5 4 3 3 4 3 3 3 4 3 3 2 2 2 2 3 2 2 2
1 2 2 2 3 2 2 3 3 3 1 2 3 3 1 2 2 3 3 3 3 4 4 5 5 4 3 3 3 3 3 2 3 3 3 3 3 3 2 2 3 2 2
1 1 3 3 3 3 4 4 4 4 3 1 1 3 3 2 0 2 2 2 2 2 3 4 4 3 3 3 2 2 2 0 1 2 3 3 3 3 3 3 3 3 2
1 1 2 3 3 3 4 4 3 3 5 3 1 1 2 3 3 0 1 2 2 1 1 2 3 3 2 2 2 2 2 1 1 1 2 2 3 3 3 3 3 3 2
2 2 2 2 2 2 4 4 4 3 4 4 3 2 2 2 2 2 1 1 1 1 1 1 1 2 2 2 2 2 1 0 1 2 2 2 3 3 4 3 2 2 2
2 2 2 2 2 2 3 4 4 4 4 4 3 3 3 3 3 3 2 1 1 1 1 1 1 1 1 1 2 2 1 1 0 1 1 2 2 3 3 4 3 3 3
3 3 3 2 2 3 3 4 4 4 4 5 4 3 3 3 3 3 3 1 1 1 1 1 1 1 0 1 1 2 2 2 1 1 1 2 2 1 2 3 4 4 3
4 4 4 3 3 3 4 4 4 4 4 5 5 4 3 3 3 4 4 3 1 1 1 2 1 1 1 1 0 1 1 1 1 1 2 3 3 2 2 3 3 4 4
4 3 3 3 3 3 3 4 4 4 4 5 5 5 4 3 3 4 4 4 4 3 3 3 2 1 2 1 1 1 1 1 1 2 2 3 3 2 2 2 3 3 4
4 3 4 4 3 3 3 3 4 4 5 4 4 5 5 3 3 3 4 3 3 4 3 3 3 1 1 2 2 2 2 2 2 2 3 3 2 2 2 2 2 2 2
4 4 4 4 4 4 4 4 4 5 5 5 4 5 5 5 4 4 3 4 3 3 3 2 1 1 1 2 1 2 2 2 3 3 3 3 3 3 3 3 3 3 3
5 4 4 4 4 4 4 5 5 5 5 6 6 6 6 5 5 4 4 5 4 4 4 4 2 2 2 2 2 1 1 2 2 3 4 4 3 3 4 4 4 4 4
5 4 4 4 5 5 5 5 5 5 5 6 6 7 7 6 6 5 5 4 4 4 3 4 3 2 1 1 1 0 0 1 2 3 4 4 4 4 4 4 4 4 4
4 4 4 4 4 5 5 5 4 5 5 5 6 6 7 7 7 7 6 5 5 4 4 4 3 2 2 2 2 2 1 1 2 2 3 3 4 4 4 4 4 4 5
4 4 4 3 3 3 4 4 4 5 5 5 5 5 6 7 8 7 6 6 6 5 4 4 4 3 3 3 3 3 3 1 2 1 1 1 1 1 3 5 5 5 5
4 4 3 3 3 3 5 6 5 4 5 5 5 4 4 6 7 8 8 8 8 7 6 6 5 6 5 4 3 4 3 2 2 1 1 2 1 2 3 4 5 6 5
4 4 3 3 3 4 6 6 6 4 4 4 4 4 4 4 5 4 5 6 7 9 9 7 7 7 6 6 6 5 4 3 4 2 2 3 1 3 3 5 6 5 5
4 4 4 4 3 4 5 5 5 4 3 4 4 5 5 4 5 5 4 4 4 4 6 5 6 6 6 6 7 6 5 2 0 0 2 3 2 3 3 4 6 5 5
4 4 4 3 3 4 4 4 3 2 2 2 3 4 4 4 6 6 5 4 3 2 3 4 4 5 6 7 6 4 4 3 2 2 2 2 2 2 2 2 4 4 4
4 4 4 3 3 4 4 4 3 1 2 2 2 3 4 5 6 6 5 5 5 3 2 2 2 2 4 5 7 5 5 5 2 2 3 3 1 1 1 2 2 3 3
Wind_Direction
114 103 98 100 100 108 118 114 106 97 87 76 80 89 84 82 76 73 63 72 92 96 96 97 102 108 123 136 136 133 131 130 125 119 115 110 104 100 99 98 100 104 100
129 129 114 105 114 124 128 131 123 111 95 90 80 84 86 86 79 74 67 65 71 79 85 93 100 103 127 145 144 140 139 141 136 128 124 118 111 103 98 97 102 105 102
142 134 135 138 135 144 131 120 118 110 103 94 86 79 80 81 80 75 71 67 64 63 62 70 86 105 120 139 141 142 146 144 138 137 135 127 118 111 105 101 102 104 109
154 136 139 163 159 142 128 133 137 123 113 106 97 76 67 69 70 73 72 68 66 60 54 57 58 83 119 142 149 152 147 142 140 137 135 128 122 122 120 116 111 108 107
162 144 150 156 150 133 140 154 137 135 133 119 108 79 61 61 58 72 70 66 65 63 57 55 51 57 87 128 158 162 151 145 142 140 137 135 136 131 127 121 119 117 114
173 155 150 156 140 148 160 142 127 114 129 128 108 81 58 57 58 64 68 68 65 59 55 56 52 40 54 78 130 151 147 142 142 149 151 153 149 145 140 135 129 124 117
182 162 157 160 155 172 178 158 136 122 112 117 100 75 44 52 64 56 54 64 58 51 50 51 50 45 42 64 85 120 146 160 161 164 166 165 160 157 168 161 159 154 156
187 182 169 181 176 169 163 159 144 134 120 131 124 113 84 13 26 37 40 54 48 45 41 38 40 42 48 56 70 95 114 156 184 192 192 184 180 210 197 194 196 191 193
230 193 187 184 189 179 182 181 170 154 159 179 152 145 149 194 254 360 20 38 43 46 29 24 31 33 50 58 62 71 91 113 161 181 182 177 187 201 212 220 217 205 211
256 230 199 189 194 187 183 189 182 169 159 169 170 96 126 146 149 159 338 1 16 12 11 17 13 19 36 54 66 81 99 111 178 205 191 190 198 205 214 221 218 216 221
269 237 221 200 199 193 190 188 182 180 176 175 170 157 122 92 111 148 200 292 333 327 327 338 356 7 14 41 61 81 68 69 231 234 224 218 226 228 225 217 213 221 225
298 280 243 223 213 205 199 194 190 187 190 184 176 167 165 160 162 155 177 217 251 293 320 321 335 316 355 47 67 65 60 51 355 270 257 243 241 248 240 230 233 246 240
280 266 261 241 233 220 209 191 188 194 191 189 189 191 187 186 162 159 156 176 229 288 306 294 274 247 199 88 71 64 70 63 49 355 322 286 270 280 270 256 247 246 239
256 261 257 247 239 225 214 196 191 198 195 196 198 191 190 192 177 171 165 160 180 268 261 256 290 236 222 169 352 61 61 34 4 333 328 312 285 273 279 269 259 249 241
272 264 254 247 238 228 218 199 202 202 196 202 201 197 196 195 189 189 176 172 169 200 238 233 230 240 218 228 260 233 223 246 283 294 310 321 320 278 269 268 260 247 245
277 262 253 243 234 226 219 209 209 203 199 205 201 198 198 196 190 188 185 186 183 188 219 221 220 224 217 226 243 226 217 234 257 270 291 305 302 268 255 244 239 232 233
277 260 252 239 230 224 216 213 218 206 204 207 205 202 205 192 191 190 185 184 188 181 212 244 226 213 192 196 223 220 218 217 235 254 268 271 265 253 241 246 247 240 239
286 272 263 246 233 228 217 212 219 215 209 209 208 202 205 194 192 192 189 194 196 191 190 215 223 210 210 201 186 184 223 219 232 253 260 257 251 252 247 249 256 260 255
288 279 264 250 239 232 222 218 217 217 215 216 211 207 203 194 199 197 193 194 197 197 188 193 213 210 210 196 160 187 255 270 259 257 253 250 249 252 252 250 254 259 260
296 284 268 258 247 238 229 223 219 220 216 217 215 212 204 200 202 197 196 191 187 187 180 185 195 198 201 192 165 184 226 239 278 286 263 257 254 254 255 253 253 253 257
305 299 286 275 265 249 234 221 217 222 215 212 212 211 209 207 209 205 202 190 186 190 189 193 197 202 203 189 197 194 214 232 277 281 267 284 265 265 264 258 250 249 255
314 309 296 278 267 261 255 245 236 225 214 208 210 209 211 208 210 215 216 209 201 198 200 205 211 209 212 206 196 195 199 213 258 232 197 272 265 265 269 257 251 246 250
314 310 301 286 272 267 261 254 247 238 220 210 208 203 212 214 207 198 208 215 221 222 217 210 208 211 205 200 190 200 208 220 237 210 203 265 272 264 274 267 258 255 258
305 299 291 286 282 273 273 269 256 235 222 213 208 203 201 201 204 195 189 198 213 226 230 223 215 211 205 193 195 202 205 207 230 191 179 242 255 259 284 274 259 262 272
303 296 290 287 285 284 278 273 273 225 216 222 213 202 200 200 208 202 187 188 200 225 235 215 217 205 197 193 181 169 175 185 239 234 193 202 235 276 280 276 263 259 269
293 300 304 298 286 281 277 270 255 217 213 223 212 203 211 212 210 208 192 187 196 207 179 163 162 181 179 182 190 191 189 194 212 224 197 178 199 191 273 270 278 278 274
Height
1528 1529 1530 1532 1533 1534 1536 1537 1538 1540 1541 1542 1543 1545 1546 1547 1548 1549 1551 1552 1553 1554 1555 1556 1556 1558 1559 1559 1560 1561 1562 1562 1563 1564 1565 1565 1566 1567 1567 1567 1568 1568 1568
1526 1527 1528 1530 1531 1532 1534 1535 1536 1538 1539 1540 1542 1543 1544 1546 1547 1548 1549 1550 1551 1552 1553 1554 1555 1556 1557 1558 1559 1559 1560 1561 1562 1563 1563 1564 1565 1566 1566 1567 1567 1567 1568
1524 1525 1526 1527 1529 1530 1532 1533 1534 1536 1537 1538 1540 1541 1542 1544 1545 1546 1548 1549 1550 1551 1552 1552 1553 1554 1555 1556 1557 1558 1559 1559 1560 1561 1562 1563 1563 1564 1565 1565 1566 1566 1567
1522 1523 1524 1525 1527 1528 1529 1531 1532 1533 1535 1536 1538 1539 1540 1542 1543 1544 1546 1547 1548 1549 1550 1550 1551 1552 1553 1554 1555 1556 1557 1558 1558 1560 1560 1561 1562 1563 1563 1564 1564 1565 1565
1519 1520 1521 1522 1524 1525 1527 1528 1530 1531 1533 1534 1536 1537 1538 1539 1541 1542 1544 1545 1546 1547 1548 1549 1549 1550 1551 1552 1553 1553 1555 1555 1557 1558 1559 1559 1560 1561 1562 1562 1563 1563 1564
1517 1518 1519 1520 1521 1523 1524 1526 1527 1529 1530 1532 1534 1535 1536 1537 1539 1540 1542 1543 1544 1545 1546 1547 1547 1548 1549 1550 1551 1551 1552 1553 1554 1556 1556 1557 1558 1559 1559 1560 1561 1561 1562
1514 1515 1516 1517 1518 1520 1521 1523 1525 1526 1528 1530 1532 1533 1534 1535 1537 1538 1539 1540 1542 1543 1544 1545 1545 1546 1547 1548 1549 1549 1550 1551 1552 1553 1554 1555 1556 1556 1557 1557 1558 1559 1559
1511 1512 1513 1514 1515 1517 1518 1520 1522 1523 1525 1527 1529 1530 1532 1534 1534 1536 1537 1538 1540 1541 1542 1543 1543 1544 1545 1546 1546 1547 1548 1549 1549 1550 1551 1552 1553 1554 1555 1555 1556 1556 1557
1508 1509 1510 1511 1512 1514 1515 1517 1519 1520 1522 1524 1526 1528 1529 1530 1531 1533 1534 1536 1537 1538 1539 1540 1541 1542 1543 1543 1544 1545 1546 1546 1547 1548 1548 1549 1550 1551 1552 1552 1553 1553 1554
1505 1506 1507 1508 1509 1510 1512 1514 1516 1517 1519 1521 1523 1525 1527 1527 1529 1530 1532 1533 1534 1535 1537 1538 1539 1540 1540 1541 1542 1542 1543 1544 1544 1545 1546 1546 1547 1548 1548 1549 1550 1550 1550
1502 1503 1504 1505 1506 1507 1509 1510 1512 1514 1516 1518 1519 1521 1523 1525 1526 1527 1528 1530 1531 1533 1534 1535 1536 1537 1538 1538 1539 1539 1540 1541 1541 1542 1543 1543 1544 1544 1545 1546 1546 1547 1547
1498 1499 1500 1501 1503 1504 1505 1507 1508 1510 1512 1514 1516 1517 1519 1520 1522 1524 1525 1526 1527 1529 1531 1532 1533 1534 1535 1535 1536 1537 1537 1538 1538 1539 1539 1540 1541 1541 1541 1542 1543 1543 1543
1495 1496 1497 1498 1499 1500 1501 1503 1504 1506 1508 1510 1512 1513 1515 1517 1519 1521 1522 1522 1523 1525 1526 1528 1529 1531 1532 1532 1533 1533 1534 1534 1535 1536 1536 1537 1537 1537 1538 1538 1538 1539 1539
1491 1492 1493 1494 1495 1496 1497 1499 1500 1502 1504 1505 1507 1509 1511 1513 1515 1517 1518 1519 1520 1521 1522 1524 1525 1527 1528 1529 1529 1530 1531 1531 1532 1532 1532 1533 1533 1534 1534 1534 1535 1535 1535
1487 1488 1489 1490 1491 1492 1493 1494 1496 1498 1499 1501 1503 1505 1507 1508 1510 1512 1514 1516 1517 1517 1518 1519 1521 1523 1524 1525 1526 1526 1527 1527 1528 1528 1529 1529 1529 1530 1530 1530 1531 1531 1531
1483 1483 1484 1485 1486 1487 1488 1490 1491 1493 1495 1496 1498 1500 1502 1503 1506 1508 1510 1511 1513 1514 1513 1514 1517 1519 1520 1521 1522 1522 1523 1524 1524 1524 1525 1525 1525 1525 1526 1526 1527 1527 1527
1478 1478 1479 1480 1481 1482 1483 1484 1486 1488 1489 1491 1493 1495 1496 1498 1500 1503 1504 1506 1508 1509 1509 1510 1512 1514 1515 1517 1518 1518 1519 1520 1520 1521 1521 1521 1521 1522 1522 1522 1523 1523 1524
1474 1474 1474 1475 1476 1477 1478 1479 1480 1482 1484 1486 1487 1489 1491 1493 1495 1497 1499 1500 1502 1504 1505 1505 1507 1509 1511 1512 1513 1514 1515 1515 1516 1516 1517 1517 1517 1518 1518 1519 1519 1519 1520
1469 1469 1469 1470 1471 1472 1472 1474 1475 1477 1478 1480 1482 1484 1486 1488 1490 1492 1493 1495 1497 1499 1500 1501 1502 1504 1506 1507 1508 1509 1510 1511 1511 1512 1512 1513 1513 1514 1514 1515 1515 1515 1515
1464 1464 1464 1465 1466 1467 1467 1468 1470 1471 1473 1475 1477 1479 1480 1482 1484 1486 1488 1490 1492 1493 1495 1496 1497 1499 1500 1502 1503 1504 1505 1506 1507 1507 1508 1508 1509 1509 1510 1510 1511 1511 1511
1459 1459 1460 1460 1461 1461 1462 1463 1464 1466 1467 1469 1471 1473 1475 1476 1478 1480 1482 1484 1486 1487 1489 1490 1491 1493 1494 1496 1498 1499 1500 1501 1502 1503 1503 1504 1504 1504 1505 1506 1506 1506 1506
1455 1455 1455 1455 1456 1456 1458 1459 1460 1461 1462 1464 1465 1467 1469 1471 1473 1475 1477 1479 1481 1482 1483 1485 1486 1487 1488 1491 1493 1494 1495 1496 1496 1498 1498 1499 1500 1499 1500 1501 1501 1501 1501
1450 1450 1450 1451 1451 1452 1453 1454 1455 1456 1457 1459 1460 1462 1464 1466 1467 1469 1471 1473 1475 1477 1479 1480 1481 1482 1483 1485 1487 1489 1490 1491 1491 1492 1494 1493 1494 1495 1496 1496 1496 1496 1497
1446 1446 1446 1446 1447 1447 1448 1449 1450 1451 1452 1453 1455 1457 1458 1460 1462 1464 1465 1467 1468 1470 1472 1474 1475 1477 1479 1480 1482 1484 1485 1486 1486 1488 1489 1488 1489 1490 1491 1491 1491 1492 1492
1442 1442 1441 1442 1442 1443 1444 1444 1445 1446 1447 1448 1450 1452 1453 1455 1457 1459 1460 1461 1463 1465 1467 1468 1470 1472 1473 1475 1477 1478 1479 1480 1480 1482 1484 1484 1484 1485 1486 1486 1487 1487 1488
1438 1438 1438 1438 1438 1438 1439 1440 1441 1442 1442 1444 1445 1447 1449 1450 1452 1454 1455 1456 1457 1459 1461 1463 1465 1466 1468 1469 1471 1473 1474 1475 1475 1476 1478 1479 1479 1481 1480 1481 1482 1483 1483